Time,TemperatureF,DewpointF,PressureIn,WindDirection,WindDirectionDegrees,WindSpeedMPH,WindSpeedGustMPH,Humidity,HourlyPrecipIn,Conditions,Clouds,dailyrainin,SolarRadiationWatts/m^2,SoftwareType,DateUTC
2013-08-19 00:11:00,55.0,40.0,-100.00,North,10,5.0,10.0,56,0.00,,,0.00,0.000000,,2013-08-19 06:11:00,
2013-08-19 00:21:00,55.0,40.0,-100.00,North,10,5.0,10.0,56,0.00,,,0.00,0.000000,,2013-08-19 06:21:00,
2013-08-19 00:32:00,55.0,40.0,-100.00,North,10,5.0,10.0,56,0.00,,,0.00,0.000000,,2013-08-19 06:32:00,
2013-08-19 02:11:00,48.0,38.0,-100.00,North,357,7.0,10.0,69,-99.99,,,0.00,0.000000,,2013-08-19 08:11:00,
2013-08-19 02:21:00,48.0,38.0,-100.00,North,357,7.0,10.0,69,-99.99,,,0.00,0.000000,,2013-08-19 08:21:00,
2013-08-19 02:32:00,48.0,38.0,-100.00,North,357,7.0,10.0,69,-99.99,,,0.00,0.000000,,2013-08-19 08:32:00,
2013-08-19 03:11:00,47.0,37.0,-100.00,North,7,6.0,12.0,69,0.00,,,-99.99,0.000000,,2013-08-19 09:11:00,
2013-08-19 03:22:00,47.0,37.0,-100.00,North,7,6.0,12.0,69,0.00,,,-99.99,0.000000,,2013-08-19 09:22:00,
2013-08-19 03:33:00,47.0,37.0,-100.00,North,7,6.0,12.0,69,0.00,,,-99.99,0.000000,,2013-08-19 09:33:00,
2013-08-19 04:12:00,48.0,37.0,-100.00,North,7,6.0,12.0,66,0.00,,,0.00,0.000000,,2013-08-19 10:12:00,
2013-08-19 04:23:00,48.0,37.0,-100.00,North,7,6.0,12.0,66,0.00,,,0.00,0.000000,,2013-08-19 10:23:00,
2013-08-19 04:33:00,48.0,37.0,-100.00,North,7,6.0,12.0,66,0.00,,,0.00,0.000000,,2013-08-19 10:33:00,
2013-08-19 05:12:00,45.0,37.0,-100.00,North,357,7.0,12.0,73,0.00,,,0.00,0.000000,,2013-08-19 11:12:00,
2013-08-19 05:22:00,45.0,37.0,-100.00,North,357,7.0,12.0,73,0.00,,,0.00,0.000000,,2013-08-19 11:22:00,
2013-08-19 05:33:00,45.0,37.0,-100.00,North,357,7.0,12.0,73,0.00,,,0.00,0.000000,,2013-08-19 11:33:00,
2013-08-19 08:11:00,49.0,40.0,-100.00,North,6,6.0,10.0,71,0.00,,,0.00,41.000000,,2013-08-19 14:11:00,
2013-08-19 08:21:00,49.0,40.0,-100.00,North,6,6.0,10.0,71,0.00,,,0.00,41.000000,,2013-08-19 14:21:00,
2013-08-19 08:32:00,49.0,40.0,-100.00,North,6,6.0,10.0,71,0.00,,,0.00,41.000000,,2013-08-19 14:32:00,
2013-08-19 09:11:00,67.0,42.0,-100.00,SW,215,3.0,8.0,40,0.00,,,0.00,225.000000,,2013-08-19 15:11:00,
2013-08-19 10:13:00,71.0,42.0,-100.00,South,169,4.0,7.0,35,0.00,,,0.00,427.000000,,2013-08-19 16:13:00,
2013-08-19 10:23:00,71.0,42.0,-100.00,South,169,4.0,7.0,35,0.00,,,0.00,427.000000,,2013-08-19 16:23:00,
2013-08-19 10:33:00,71.0,42.0,-100.00,South,169,4.0,7.0,35,0.00,,,0.00,427.000000,,2013-08-19 16:33:00,
2013-08-19 10:38:00,74.0,41.0,-100.00,SSE,152,6.0,10.0,30,0.00,,,0.00,624.000000,,2013-08-19 16:38:00,
2013-08-19 11:13:00,74.0,41.0,-100.00,SSE,152,6.0,10.0,30,0.00,,,0.00,624.000000,,2013-08-19 17:13:00,
2013-08-19 11:30:00,74.0,-99.9,-100.00,SSE,152,6.0,10.0,30,0.00,,,0.00,624.000000,,2013-08-19 17:30:00,
2013-08-19 11:38:00,78.0,40.0,-100.00,South,173,6.0,13.0,26,0.00,,,0.00,786.000000,,2013-08-19 17:38:00,
2013-08-19 12:19:00,78.0,40.0,-100.00,South,173,6.0,13.0,26,0.00,,,0.00,786.000000,,2013-08-19 18:19:00,
2013-08-19 12:28:00,78.0,40.0,-100.00,South,173,6.0,13.0,26,0.00,,,0.00,786.000000,,2013-08-19 18:28:00,
2013-08-19 12:38:00,81.0,37.0,-100.00,SW,216,6.0,14.0,21,0.00,,,0.00,910.000000,,2013-08-19 18:38:00,
2013-08-19 13:00:00,-999.0,-99.9,-100.00,SW,216,6.0,14.0,21,0.00,,,0.00,910.000000,,2013-08-19 19:00:00,
2013-08-19 13:16:00,81.0,37.0,-100.00,SW,216,6.0,14.0,21,0.00,,,0.00,910.000000,,2013-08-19 19:16:00,
2013-08-19 13:30:00,-999.0,-99.9,-100.00,SW,216,6.0,14.0,21,0.00,,,0.00,910.000000,,2013-08-19 19:30:00,
2013-08-19 13:38:00,80.0,37.0,-100.00,East,90,6.0,17.0,21,0.00,,,0.00,862.000000,,2013-08-19 19:38:00,
2013-08-19 14:20:00,80.0,37.0,-100.00,East,90,6.0,17.0,21,0.00,,,0.00,862.000000,,2013-08-19 20:20:00,
2013-08-19 14:30:00,80.0,-99.9,-100.00,East,90,6.0,17.0,21,0.00,,,0.00,862.000000,,2013-08-19 20:30:00,
2013-08-19 15:00:00,-999.0,-99.9,-100.00,SE,144,5.0,22.0,-999,-99.99,,,-99.99,228.000000,,2013-08-19 21:00:00,
2013-08-19 16:25:00,80.0,39.0,-100.00,SSW,201,9.0,16.0,23,-99.99,,,0.06,890.000000,,2013-08-19 22:25:00,
2013-08-19 16:35:00,80.0,39.0,-100.00,SSW,201,9.0,16.0,23,-99.99,,,0.06,890.000000,,2013-08-19 22:35:00,
2013-08-19 17:15:00,78.0,38.0,-100.00,ENE,70,16.0,26.0,24,0.00,,,0.06,614.000000,,2013-08-19 23:15:00,
2013-08-19 17:25:00,78.0,38.0,-100.00,ENE,70,16.0,26.0,24,0.00,,,0.06,614.000000,,2013-08-19 23:25:00,
2013-08-19 17:36:00,78.0,38.0,-100.00,ENE,70,16.0,26.0,24,0.00,,,0.06,614.000000,,2013-08-19 23:36:00,
2013-08-19 18:11:00,76.0,37.0,-100.00,ENE,57,9.0,25.0,24,0.00,,,0.06,380.000000,,2013-08-20 00:11:00,
2013-08-19 18:24:00,76.0,37.0,-100.00,ENE,57,9.0,25.0,24,0.00,,,0.06,380.000000,,2013-08-20 00:24:00,
2013-08-19 18:32:00,76.0,37.0,-100.00,ENE,57,9.0,25.0,24,0.00,,,0.06,380.000000,,2013-08-20 00:32:00,
2013-08-19 19:11:00,76.0,34.0,-100.00,East,100,6.0,16.0,22,0.00,,,0.06,174.000000,,2013-08-20 01:11:00,
2013-08-19 19:22:00,76.0,34.0,-100.00,East,100,6.0,16.0,22,0.00,,,0.06,174.000000,,2013-08-20 01:22:00,
2013-08-19 19:32:00,76.0,34.0,-100.00,East,100,6.0,16.0,22,0.00,,,0.06,174.000000,,2013-08-20 01:32:00,
2013-08-19 20:11:00,68.0,40.0,-100.00,ESE,123,10.0,17.0,36,0.00,,,0.06,44.000000,,2013-08-20 02:11:00,
2013-08-19 20:21:00,68.0,40.0,-100.00,ESE,123,10.0,17.0,36,0.00,,,0.06,44.000000,,2013-08-20 02:21:00,
2013-08-19 20:32:00,68.0,40.0,-100.00,ESE,123,10.0,17.0,36,0.00,,,0.06,44.000000,,2013-08-20 02:32:00,
2013-08-19 21:11:00,67.0,40.0,-100.00,East,96,5.0,15.0,37,0.00,,,0.06,1.000000,,2013-08-20 03:11:00,
2013-08-19 21:22:00,67.0,40.0,-100.00,East,96,5.0,15.0,37,0.00,,,0.06,1.000000,,2013-08-20 03:22:00,
2013-08-19 21:33:00,67.0,40.0,-100.00,East,96,5.0,15.0,37,0.00,,,0.06,1.000000,,2013-08-20 03:33:00,
2013-08-19 22:13:00,63.0,41.0,-100.00,NE,37,3.0,5.0,44,0.00,,,0.06,0.000000,,2013-08-20 04:13:00,
2013-08-19 22:23:00,63.0,41.0,-100.00,NE,37,3.0,5.0,44,0.00,,,0.06,0.000000,,2013-08-20 04:23:00,
2013-08-19 22:33:00,63.0,41.0,-100.00,NE,37,3.0,5.0,44,0.00,,,0.06,0.000000,,2013-08-20 04:33:00,
2013-08-19 23:12:00,64.0,42.0,-100.00,NW,316,7.0,14.0,44,0.00,,,0.06,0.000000,,2013-08-20 05:12:00,
2013-08-19 23:22:00,64.0,42.0,-100.00,NW,316,7.0,14.0,44,0.00,,,0.06,0.000000,,2013-08-20 05:22:00,
2013-08-19 23:32:00,64.0,42.0,-100.00,NW,316,7.0,14.0,44,0.00,,,0.06,0.000000,,2013-08-20 05:32:00,